QPF
0.00 0.00 0.00 0.00 0.00 0.00 0.00 0.00 0.00 0.00 0.00 0.00 0.00 0.00 0.01 0.01 0.03 0.00 0.00 0.01 0.01 0.02 0.04 0.04 0.02 0.00 0.00 0.00 0.00 0.00 0.00 0.00
0.00 0.00 0.00 0.00 0.00 0.00 0.00 0.00 0.00 0.00 0.00 0.00 0.00 0.00 0.00 0.00 0.01 0.00 0.00 0.01 0.02 0.03 0.03 0.03 0.01 0.00 0.00 0.00 0.00 0.00 0.00 0.00
0.00 0.00 0.00 0.00 0.00 0.00 0.00 0.00 0.00 0.00 0.00 0.00 0.00 0.00 0.00 0.00 0.00 0.00 0.00 0.00 0.01 0.02 0.04 0.02 0.01 0.00 0.00 0.00 0.00 0.00 0.00 0.00
0.00 0.00 0.00 0.00 0.00 0.00 0.00 0.00 0.00 0.00 0.00 0.00 0.00 0.00 0.00 0.00 0.00 0.01 0.01 0.01 0.00 0.00 0.01 0.01 0.00 0.00 0.00 0.00 0.00 0.00 0.00 0.00
0.00 0.00 0.00 0.00 0.00 0.00 0.00 0.00 0.00 0.00 0.00 0.00 0.00 0.00 0.00 0.00 0.00 0.00 0.01 0.00 0.00 0.00 0.00 0.00 0.00 0.00 0.00 0.00 0.00 0.00 0.00 0.00
0.00 0.00 0.00 0.00 0.00 0.00 0.00 0.00 0.00 0.00 0.00 0.00 0.00 0.00 0.00 0.00 0.00 0.00 0.00 0.00 0.00 0.00 0.00 0.00 0.00 0.00 0.00 0.00 0.00 0.00 0.00 0.00
0.00 0.00 0.00 0.00 0.00 0.00 0.00 0.00 0.00 0.00 0.00 0.00 0.00 0.00 0.00 0.00 0.01 0.01 0.01 0.00 0.00 0.00 0.00 0.00 0.00 0.00 0.00 0.00 0.00 0.00 0.00 0.00
0.00 0.00 0.00 0.00 0.00 0.00 0.00 0.00 0.00 0.00 0.00 0.00 0.01 0.03 0.00 0.00 0.00 0.01 0.00 0.01 0.00 0.00 0.00 0.00 0.00 0.00 0.00 0.00 0.00 0.00 0.00 0.00
0.00 0.00 0.00 0.00 0.00 0.00 0.00 0.00 0.00 0.00 0.00 0.02 0.03 0.01 0.00 0.00 0.00 0.01 0.00 0.01 0.02 0.00 0.00 0.00 0.00 0.00 0.01 0.00 0.00 0.00 0.00 0.00
0.00 0.00 0.00 0.00 0.00 0.00 0.00 0.00 0.00 0.00 0.00 0.00 0.01 0.03 0.00 0.00 0.00 0.01 0.01 0.01 0.04 0.04 0.01 0.00 0.00 0.00 0.00 0.00 0.00 0.00 0.00 0.00
0.00 0.00 0.00 0.00 0.00 0.00 0.00 0.00 0.00 0.00 0.00 0.01 0.02 0.01 0.00 0.00 0.00 0.00 0.00 0.01 0.02 0.03 0.05 0.03 0.00 0.00 0.00 0.00 0.00 0.01 0.00 0.00
0.00 0.00 0.00 0.00 0.00 0.00 0.00 0.00 0.00 0.00 0.00 0.01 0.03 0.05 0.02 0.00 0.00 0.00 0.00 0.00 0.00 0.02 0.04 0.05 0.04 0.01 0.01 0.00 0.00 0.00 0.00 0.00
0.00 0.00 0.00 0.00 0.00 0.00 0.00 0.00 0.00 0.00 0.00 0.03 0.07 0.06 0.01 0.00 0.00 0.00 0.00 0.00 0.01 0.00 0.00 0.02 0.02 0.00 0.01 0.01 0.00 0.00 0.01 0.00
0.00 0.00 0.00 0.00 0.00 0.00 0.00 0.00 0.00 0.00 0.02 0.06 0.05 0.03 0.00 0.00 0.00 0.00 0.00 0.00 0.00 0.00 0.00 0.00 0.00 0.00 0.00 0.01 0.00 0.00 0.00 0.00
0.00 0.00 0.00 0.00 0.00 0.00 0.00 0.00 0.00 0.01 0.04 0.07 0.04 0.01 0.00 0.00 0.00 0.00 0.00 0.00 0.00 0.00 0.00 0.00 0.00 0.00 0.00 0.00 0.00 0.00 0.00 0.00
0.00 0.00 0.00 0.00 0.00 0.00 0.00 0.00 0.01 0.04 0.06 0.05 0.02 0.01 0.00 0.00 0.00 0.00 0.00 0.00 0.00 0.00 0.00 0.00 0.00 0.00 0.00 0.00 0.00 0.00 0.00 0.00
0.00 0.00 0.00 0.00 0.00 0.00 0.01 0.01 0.01 0.03 0.06 0.04 0.01 0.01 0.01 0.00 0.00 0.00 0.00 0.00 0.00 0.00 0.00 0.00 0.00 0.00 0.00 0.00 0.00 0.00 0.00 0.00
0.00 0.00 0.00 0.00 0.00 0.00 0.01 0.02 0.01 0.03 0.05 0.03 0.00 0.01 0.01 0.00 0.00 0.00 0.00 0.00 0.00 0.00 0.00 0.00 0.00 0.00 0.00 0.00 0.00 0.00 0.00 0.00
0.00 0.00 0.00 0.00 0.00 0.00 0.01 0.02 0.02 0.01 0.03 0.02 0.00 0.00 0.01 0.00 0.00 0.00 0.00 0.00 0.00 0.00 0.00 0.00 0.00 0.00 0.00 0.00 0.00 0.00 0.00 0.00
MSLP
1002.16 1002.47 1002.64 1002.86 1002.96 1002.89 1002.93 1003.02 1003.24 1004.08 1004.88 1005.43 1006.24 1006.94 1007.66 1008.34 1008.60 1008.90 1009.30 1010.17 1010.87 1011.25 1011.86 1012.58 1013.14 1014.08 1014.58 1015.29 1015.64 1015.74 1016.07 1016.18
1002.24 1002.26 1002.58 1002.81 1002.64 1002.30 1002.28 1002.31 1002.63 1003.48 1004.11 1004.73 1005.67 1006.23 1007.09 1007.90 1008.35 1008.61 1009.06 1009.54 1010.24 1010.72 1011.29 1011.93 1012.56 1013.26 1013.77 1014.27 1014.79 1014.97 1015.34 1016.04
1002.12 1002.28 1002.28 1002.31 1002.14 1002.09 1002.08 1001.98 1002.34 1002.86 1003.59 1004.43 1005.31 1005.98 1006.48 1007.20 1007.96 1008.27 1008.54 1009.10 1009.52 1010.18 1010.62 1011.27 1011.68 1012.46 1013.02 1013.55 1014.10 1014.19 1014.75 1015.48
1002.30 1002.37 1002.35 1002.34 1001.98 1001.81 1001.87 1001.68 1001.99 1002.72 1002.96 1004.13 1004.48 1005.37 1006.05 1006.92 1007.21 1007.55 1007.88 1008.24 1008.45 1009.19 1009.98 1010.52 1010.59 1011.48 1012.29 1012.84 1013.41 1013.70 1014.04 1015.08
1002.57 1002.45 1002.29 1002.14 1002.03 1001.91 1001.73 1001.53 1001.74 1002.97 1003.02 1003.57 1003.68 1004.06 1004.37 1005.12 1005.72 1006.52 1007.21 1007.68 1008.18 1008.68 1009.34 1009.83 1009.94 1010.41 1011.42 1012.10 1012.91 1013.27 1013.36 1014.08
1002.65 1002.44 1002.24 1001.96 1001.91 1001.92 1001.70 1001.58 1002.17 1002.80 1002.99 1002.85 1003.27 1003.61 1004.06 1004.87 1005.55 1005.95 1006.66 1007.36 1007.83 1008.10 1008.77 1009.20 1009.45 1009.99 1010.73 1011.59 1012.33 1012.71 1013.13 1013.50
1002.75 1002.40 1002.16 1001.73 1001.80 1002.04 1002.25 1002.02 1002.38 1002.86 1003.03 1002.89 1003.02 1003.35 1004.00 1004.78 1005.14 1005.57 1006.26 1006.95 1007.54 1007.97 1008.47 1008.85 1009.21 1009.66 1010.35 1011.32 1011.70 1012.21 1012.71 1013.08
1002.68 1002.35 1002.06 1001.83 1001.76 1001.65 1001.86 1002.41 1002.55 1003.02 1003.21 1003.03 1003.02 1003.22 1003.73 1004.34 1004.61 1005.30 1005.71 1006.43 1007.09 1007.84 1008.40 1008.93 1009.41 1009.76 1010.12 1010.85 1011.35 1011.99 1012.58 1012.81
1002.47 1002.30 1002.19 1002.00 1001.84 1001.37 1001.16 1001.66 1002.59 1002.86 1003.16 1002.99 1002.98 1003.02 1003.45 1003.98 1004.13 1004.68 1005.27 1005.82 1006.49 1007.47 1008.17 1008.77 1009.37 1009.80 1010.16 1010.80 1011.22 1011.64 1012.18 1012.61
1002.38 1002.38 1002.29 1002.13 1001.95 1001.78 1001.33 1001.37 1002.05 1002.55 1002.85 1002.88 1002.88 1003.09 1002.92 1003.09 1003.48 1004.33 1004.80 1005.51 1006.17 1006.93 1007.65 1008.27 1009.01 1009.71 1010.03 1010.45 1011.01 1011.47 1011.95 1012.40
1002.24 1002.15 1001.94 1001.68 1001.76 1001.98 1002.34 1001.61 1001.95 1002.17 1002.47 1002.67 1002.34 1002.48 1002.34 1002.89 1003.27 1003.87 1004.58 1005.23 1005.94 1006.59 1007.02 1007.60 1008.36 1009.10 1009.86 1010.14 1010.65 1011.26 1011.66 1012.07
1002.01 1001.96 1001.74 1001.54 1001.61 1001.90 1002.07 1002.21 1002.09 1002.03 1002.21 1002.42 1001.98 1002.06 1002.36 1002.90 1003.41 1003.86 1004.47 1005.01 1005.70 1006.16 1006.54 1007.16 1007.52 1008.23 1008.98 1009.75 1010.37 1010.68 1011.21 1011.66
1001.86 1001.77 1001.69 1001.64 1001.80 1001.96 1001.99 1002.37 1001.96 1001.81 1001.85 1001.96 1001.82 1001.93 1002.03 1002.58 1002.95 1003.32 1004.07 1004.39 1004.83 1005.49 1006.15 1006.67 1006.91 1007.64 1008.13 1008.68 1009.58 1009.96 1010.24 1010.96
1001.47 1001.55 1001.71 1001.98 1002.07 1002.21 1002.21 1002.21 1002.37 1001.45 1001.48 1001.61 1001.65 1001.68 1001.90 1002.40 1002.68 1003.15 1004.00 1004.46 1004.98 1005.44 1005.79 1006.13 1006.58 1007.14 1007.66 1007.62 1008.40 1009.17 1009.73 1010.31
1001.17 1001.43 1001.71 1002.07 1002.16 1002.31 1002.34 1002.32 1002.25 1001.36 1001.15 1001.25 1001.24 1001.33 1001.56 1002.00 1002.39 1003.12 1003.76 1004.30 1004.89 1005.35 1005.56 1005.91 1006.26 1006.48 1006.56 1006.86 1007.22 1008.35 1009.27 1009.84
1001.14 1001.33 1001.83 1002.33 1002.72 1002.55 1002.45 1002.41 1002.37 1001.87 1000.95 1000.97 1000.92 1001.00 1001.37 1001.79 1002.33 1002.92 1003.51 1004.12 1004.83 1005.20 1005.43 1005.71 1006.02 1006.11 1006.05 1006.06 1006.81 1007.63 1008.92 1010.34
1001.73 1002.03 1002.53 1002.91 1003.24 1003.15 1002.95 1002.39 1002.29 1002.19 1000.79 1000.72 1000.58 1000.74 1001.17 1001.61 1002.21 1002.92 1003.65 1004.23 1004.81 1005.26 1005.59 1006.10 1006.37 1006.77 1006.59 1006.77 1007.69 1008.79 1010.13 1011.54
1002.80 1003.11 1003.29 1003.47 1003.55 1003.46 1003.47 1002.66 1002.84 1002.21 1001.06 1000.33 1000.21 1000.43 1000.75 1001.47 1002.11 1002.98 1003.81 1004.54 1005.21 1005.92 1006.47 1007.01 1007.56 1008.14 1007.88 1008.23 1009.01 1010.29 1011.38 1012.44
1003.72 1003.96 1004.08 1004.04 1003.97 1003.62 1003.73 1002.93 1002.68 1001.96 1001.14 1000.08 999.99 1000.14 1000.69 1001.39 1002.13 1003.14 1004.17 1005.03 1005.93 1006.76 1007.51 1008.11 1008.59 1009.49 1008.92 1009.57 1010.34 1011.47 1012.69 1014.07
Thickness
5699 5703 5706 5707 5709 5711 5710 5709 5707 5699 5691 5687 5681 5675 5669 5663 5661 5657 5653 5645 5637 5633 5628 5624 5620 5618 5617 5615 5615 5617 5616 5617
5694 5696 5697 5697 5702 5707 5707 5707 5703 5694 5688 5682 5676 5672 5667 5660 5656 5653 5648 5644 5637 5631 5626 5621 5618 5616 5617 5620 5617 5617 5617 5615
5683 5686 5690 5692 5696 5699 5700 5702 5697 5691 5686 5680 5673 5668 5666 5661 5654 5651 5647 5641 5635 5628 5623 5617 5616 5617 5617 5617 5616 5618 5617 5616
5670 5673 5679 5684 5689 5693 5693 5696 5693 5684 5684 5675 5674 5668 5663 5656 5655 5651 5647 5642 5636 5628 5620 5612 5618 5614 5615 5615 5617 5618 5618 5615
5659 5663 5668 5675 5679 5683 5686 5690 5688 5674 5676 5672 5672 5670 5669 5665 5661 5655 5647 5640 5633 5625 5617 5610 5613 5616 5615 5616 5614 5617 5620 5616
5646 5653 5660 5669 5673 5674 5678 5681 5674 5668 5668 5671 5670 5669 5667 5661 5656 5653 5646 5637 5629 5625 5615 5608 5609 5613 5614 5614 5613 5615 5618 5616
5637 5646 5653 5661 5665 5664 5664 5667 5663 5659 5660 5664 5666 5664 5659 5653 5651 5650 5644 5636 5627 5621 5612 5606 5607 5609 5611 5609 5614 5614 5615 5615
5626 5633 5641 5647 5653 5658 5658 5653 5652 5649 5650 5655 5658 5659 5656 5651 5650 5646 5642 5635 5627 5617 5612 5603 5601 5604 5607 5607 5609 5610 5608 5611
5619 5624 5630 5636 5642 5650 5654 5651 5643 5643 5642 5648 5651 5653 5652 5648 5648 5646 5639 5634 5628 5618 5610 5604 5597 5598 5601 5602 5603 5606 5606 5607
5610 5612 5619 5625 5630 5635 5642 5644 5640 5639 5638 5640 5643 5644 5650 5650 5649 5644 5639 5631 5624 5618 5611 5606 5599 5595 5598 5599 5599 5600 5601 5602
5602 5605 5611 5619 5623 5623 5623 5634 5632 5634 5634 5633 5641 5643 5649 5647 5646 5642 5635 5628 5622 5614 5610 5607 5602 5598 5593 5597 5597 5597 5598 5598
5592 5596 5604 5609 5613 5615 5616 5619 5623 5626 5627 5628 5636 5639 5640 5639 5638 5637 5632 5626 5619 5614 5610 5606 5605 5601 5597 5594 5595 5597 5597 5597
5582 5587 5590 5595 5599 5603 5607 5606 5615 5619 5623 5625 5628 5632 5635 5634 5635 5635 5630 5626 5623 5616 5611 5606 5605 5601 5599 5599 5596 5598 5601 5599
5577 5579 5579 5581 5584 5590 5595 5597 5598 5613 5617 5619 5621 5627 5629 5629 5631 5631 5625 5620 5616 5612 5609 5606 5603 5598 5594 5598 5598 5596 5598 5598
5568 5571 5570 5570 5574 5578 5584 5583 5587 5603 5609 5613 5617 5622 5625 5626 5627 5625 5621 5616 5611 5607 5607 5603 5600 5595 5595 5596 5598 5596 5595 5595
5558 5562 5561 5559 5560 5566 5569 5570 5574 5586 5600 5604 5611 5618 5620 5621 5622 5620 5617 5613 5607 5603 5603 5601 5597 5591 5592 5597 5596 5594 5590 5582
5545 5548 5547 5545 5546 5548 5552 5558 5564 5569 5592 5598 5607 5612 5614 5616 5617 5614 5610 5607 5604 5601 5597 5593 5590 5582 5579 5582 5579 5574 5569 5562
5526 5528 5530 5532 5536 5537 5538 5547 5551 5562 5580 5594 5602 5607 5610 5611 5611 5608 5603 5598 5593 5587 5583 5580 5576 5571 5572 5568 5564 5557 5553 5548
5511 5513 5514 5519 5522 5529 5528 5537 5544 5556 5570 5589 5596 5601 5603 5605 5605 5601 5592 5587 5581 5575 5570 5568 5565 5559 5565 5560 5555 5547 5540 5532